STARLINK-1686 (46328 NORAD) Tracking and Keplerian Element Data

This shows tracking and keplerian element data for the satellite.

Feedback or suggestion? Click here.




ElementValue
Catalog46328
NameSTARLINK-1686
Epoch Orbit178
Epoch Day268.91668981
Epoch Year2020
RAAN324.5006
Inclination53.0005
Eccentricity0.000129
Argument of Perigee61.3003
Mean Anonmoly145.6333
Mean Motion15.62784208
Decay Rate-0.00031088
L11 46328U 20062D 20268.91668981 -.00031088 00000-0 -33456-3 0 9995
L22 46328 53.0005 324.5006 0001290 61.3003 145.6333 15.62784208 1787

Live tracking and technical data element details for STARLINK-1686 (NORAD 46328). STARLINK-1686 can be tracked NOW for your location showing map with azimuth and elevation plus other details from your city location.

Track the satellite on the map from your city or location and see movement details for azimuth, elevation, latitude, longitude, range, height, and movement on the map or in text.







IsCatalogInMostPopularTable: catalog: 46328, numindb: 3
Update: records affected: 1



GetName: 46328 STARLINK-1686

Hit Count: updated at: Mon, 28 Sep 2020 21:35:49 GMT